STARLINK-36681, 68720

Orbit data source: Space-Track

STARLINK-36681, 68720 is a payload satellite owned by SpaceX/Seattle (US) in LEO that was launched on Tue, 14 Apr 2026 UTC via an FALCON 9 launch vehicle from the Air Force Eastern Test Range (AFETR). Payload-class satellites include a variety of spacecraft equipped with specific instruments for various scientific and technological missions. These include communications satellites like Starlink; space stations such as the ISS; scientific satellites like the Hubble; Earth observation satellites from companies like Planet Labs, Umbra, and HawkEye 360; GPS; miniature CubeSats for education and research; and military/defense satellites.

Loading next visibility...
Identifier
68720, 2026-081X
Orbit
LEO
Country
Flag of USUS
Related business
Manufacturer
SpaceX/Seattle
Mission
Operational spacecraft
Bus & Motor
STARLINK V2MO, Unknown motor
Mass
575 kg wet, ~530 kg dry
Launch date (UTC)
2026-04-14 (2 months ago)
Launch vehicle
FALCON 9
Launch site
Air Force Eastern Test Range (AFETR)
Object type
Payload
Rocket body
Debris
Shape & HBR
Unknown shape, 14.5 m
Radar Cross Section
Large (>1 m²)

Expand to show TLE details & history
Last TLE update: 1 day ago

TLE from 1 day ago
0 STARLINK-36681
1 68720U 26081X   26170.56535762  .00019545  00000-0  58791-3 0  9992
2 68720  53.1599 279.9517 0001614  94.2748 265.8439 15.34409634 10358
Epoch: 2026-06-19T13:34Z
TLE epoch observation values (Epoch: 2026-06-19T13:34:06.898Z)
Latitude
-0.00002°
Longitude
168.63044°
Altitude
463.656 km
Speed
7.636 km/s
True Right ascension
18h 39m 48s
True Declination
0° 00' 00"
Sunlit
Object was in full shadow at epoch
Visualization orbit readout
Latitude
Unknown
Longitude
Unknown
Altitude
Unknown
Speed
Unknown
Apparent Right ascension
Unknown
Apparent Declination
Unknown
Sunlit
N/A
Visualization observer readout
Local Sidereal Time
08:33:05
Azimuth
Unknown
Elevation
Unknown
Doppler factor
Unknown
Orbital elements
Apogee altitude
464.036 km
Perigee altitude
461.827 km
Semi-major axis
6,841.069 km
Eccentricity
0.00016
Inclination
53.1599°
RAAN
279.9517°
Arg. of periapsis
94.2748°
True anomaly
265.82545°
Mean anomaly
265.8439°
Eccentric anomaly
265.83468°
Mean motion
3.83581 °/min
Orbital period
93.85 mins
BSTAR
0.00058791
Loading maneuver chart data...
Computing Atmospheric mass density...
Loading historical data...
Loading historical data...
Loading historical data...
Loading historical data...
Loading historical data...
Loading historical data...
Loading historical data...

Documentation

Showing up to 5 results
|